Location: Dvur Kralove nad Labem
(50.4330°N, 15.8170°E)
Time: 01:55:13
(UTC+02:00)

ISS - Pass Details

Date: 25 August 2022
Orbit: 414 x 417 km, 51.6° (Epoch: 24 September)

Event Time Altitude Azimuth Distance (km) Brightness Sun altitude
Exits shadow 04:39:18 - 178° (S) 1,748 -0.9 -12.3°
Reaches altitude 10° 04:40:23 10° 164° (SSE) 1,494 -1.1 -12.2°
Maximum altitude 04:41:55 13° 137° (SE) 1,347 -1.1 -12.0°
Drops below altitude 10° 04:43:26 10° 110° (ESE) 1,498 -0.4 -11.8°
Sets 04:46:28 0° 80° (E) 2,365 1.4 -11.4°
